Regional Weather Roundup
Issued by NWS

Home | Current Version | Previous Version | Graphics & Text | Print | Product List | Glossary On
Versions: 1 2 3 4 5 6 7 8 9 10 11 12 13 14 15 16 17 18 19 20 21 22 23 24 25 26 27 28 29 30 31 32 33 34 35 36 37 38 39 40 41 42 43 44 45 46 47 48 49 50
000
ASUS43 KOAX 281002
RWRNE

WEATHER ROUNDUP FOR NEBRASKA
NATIONAL WEATHER SERVICE OMAHA NE
500 AM CDT TUE MAR 28 2017

NOTES: SATELLITE DATA IS BEING USED TO AUGMENT CLOUD COVER ABOVE
       12000 FEET.
       "FAIR" INDICATES FEW OR NO CLOUDS BELOW 12,000 FEET WITH NO
       SIGNIFICANT WEATHER AND/OR OBSTRUCTIONS TO VISIBILITY.

  * THESE STATIONS DO NOT REPORT WEATHER SUCH AS RAIN...SNOW OR FOG.

NEZ001>004-019>022-054>056-281100-
NEBRASKA PANHANDLE

CITY           SKY/WX    TMP DP  RH WIND       PRES   REMARKS
SCOTTSBLUFF    RAIN      47  43  86 NE7       29.88S
ALLIANCE       RAIN      45  44  97 S8        29.90S FOG
CHADRON        LGT RAIN  44  42  93 CALM      29.92R FOG
KIMBALL        CLOUDY    44  44 100 SE14      29.84F
SIDNEY         LGT RAIN  44  42  93 E9        29.88F
$$

NEZ057>060-069>072-079>082-281100-
SOUTHWEST NEBRASKA

CITY           SKY/WX    TMP DP  RH WIND       PRES   REMARKS
NORTH PLATTE   CLOUDY    43  41  93 E9        29.94S
IMPERIAL       CLOUDY    46  42  86 S6        29.92R
LEXINGTON      FOG       42  40  95 SE5       29.98R VSB 1/2
MCCOOK         CLOUDY    45  44  97 SE8       29.94S
OGALLALA       RAIN      47  44  89 S5        29.92S
$$

NEZ005>010-023>029-035>040-094-281100-
NORTH CENTRAL NEBRASKA

CITY           SKY/WX    TMP DP  RH WIND       PRES   REMARKS
VALENTINE      CLOUDY    46  42  86 E3        29.97S
AINSWORTH      CLOUDY    44  43  94 S5        29.98R
BROKEN BOW     FOG       42  40  92 SE8       29.97R VSB 3/4
O`NEILL        CLOUDY    43  41  94 SE6       30.00F
ORD            FOG       39  38  96 SE6       29.99S VSB 3/4 WCI  35
THEDFORD       CLOUDY    42  41  95 SE3       29.96R
$$

NEZ041-046>049-061>064-073>077-083>087-281100-
SOUTH CENTRAL NEBRASKA

CITY           SKY/WX    TMP DP  RH WIND       PRES   REMARKS
GRAND ISLAND   CLEAR     37  37 100 SE6       30.02R FOG     WCI  32
AURORA         FOG       33  33 100 E7        30.01S VSB 1/4 WCI  26
HASTINGS       MOCLDY    39  38  96 E9        30.00F FOG     WCI  33
HEBRON         CLOUDY    37  37  98 CALM      30.02R FOG
HOLDREGE       FOG       41  40  97 SE8       29.97S VSB 1
KEARNEY *      CLOUDY    41  37  87 E6        29.99R
YORK           FOG       32  32 100 CALM      30.03R VSB<1/4
$$

NEZ011>018-030>034-042>045-281100-
NORTHEAST NEBRASKA

CITY           SKY/WX    TMP DP  RH WIND       PRES   REMARKS
NORFOLK        FOG       33  33 100 SE3       30.03S VSB 1/4
ALBION         PTCLDY    37  35  92 E6        30.02R FOG     WCI  33
FREMONT        CLOUDY    40  39  97 CALM      30.04S
TEKAMAH        PTCLDY    33  32  96 N6        30.05S WCI  28
WAYNE          MOCLDY    31  31  99 CALM      30.04F FOG
$$

NEZ050>053-065>068-078-088>093-281100-
SOUTHEAST NEBRASKA

CITY           SKY/WX    TMP DP  RH WIND       PRES   REMARKS
LINCOLN        PTCLDY    31  30  96 N5        30.05S WCI  26
OMAHA EPPLEY   CLOUDY    38  33  82 N6        30.05S WCI  33
BEATRICE       PTCLDY    36  36  99 NE3       30.02S FOG
FALLS CITY     CLOUDY    46  42  86 CALM      30.02S
NEBRASKA CITY  CLOUDY    44  40  88 N3        30.03S
PLATTSMOUTH    PTCLDY    41  37  84 CALM      30.04S
$$

NEZ044-045-051>053-067-281100-
OMAHA AREA

CITY           SKY/WX    TMP DP  RH WIND       PRES   REMARKS
OMAHA EPPLEY   CLOUDY    38  33  82 N6        30.05S WCI  33
FREMONT        CLOUDY    40  39  97 CALM      30.04S
MILLARD        CLOUDY    45  41  88 CALM      30.04S
OFFUTT AFB     CLOUDY    42  39  90 N5        30.04S
PLATTSMOUTH    PTCLDY    41  37  84 CALM      30.04S
WAHOO          PTSUNNY   38  37  94 N3        30.04S FOG
$$



USA.gov is the U.S. government's official web portal to all federal, state and local government web resources and services.